#timestamp,LO_Frequency,Hit 
1506092415.2,286047000.2,N
1506092435.1,286046999.9,N
1506092436.0,286046999.9,N
1506092455.8,286047000.8,N
1506092475.6,286046999.2,N
1506092495.5,286046998.3,N
1506092515.3,286046996.9,N
1506092535.1,286046996.7,N
1506092555.9,286046999.9,N
1506092575.7,286046999.6,N
1506092595.5,286046998.4,N
1506092615.4,286047000.2,N
1506092635.2,286047002.3,N
1506092655.0,286046996.7,N
1506092655.9,286046996.7,N
1506092675.8,286046997.2,N
1506092695.6,286046999.6,N
1506092715.4,286046998.8,N
1506092735.2,286046999.2,N
1506092755.1,286046997.9,N
1506092756.0,286046997.9,N
1506092775.8,286046997.7,N
1506092795.6,286046994.9,N
1506092815.5,286047000.2,N
1506092835.3,286046999.0,N
1506092855.3,286046999.1,N
1506092875.1,286046996.6,N
1506092895.9,286047001.1,N
1506092915.7,286046998.2,N
1506092935.5,286046998.4,N
1506092955.4,286046995.3,N
1506092975.2,286046996.9,N
1506092995.0,286046997.2,N
1506092995.9,286046997.2,N
1506093015.8,286046998.6,N
1506093035.6,286047001.2,N
1506093055.4,286046997.5,N
1506093075.3,286046996.7,N
1506093095.1,286046998.6,N
1506093096.0,286046998.6,N
1506093115.8,286046997.2,N
1506093135.7,286046997.7,N
1506093155.5,286046996.8,N
1506093175.3,286046994.8,P
1506093195.2,286046997.5,N
1506093215.9,286046999.1,N
1506093235.7,286046999.2,N
1506093255.5,286046998.4,N
1506093275.4,286046997.3,N
1506093295.2,286046994.0,P
1506093315.1,286046995.4,N
1506093316.0,286046995.4,N
1506093335.8,286046997.1,N
1506093355.6,286046998.5,N
1506093375.5,286046997.9,N
1506093395.3,286046994.9,P
1506093415.1,286047000.1,N
1506093435.9,286046998.2,N
1506093455.7,286047002.3,N
1506093475.5,286047001.6,N
1506093495.3,286047001.4,N
1506093515.2,286047003.3,N
1506093535.0,286047003.9,N
1506093535.9,286047003.9,N
1506093555.7,286047004.7,N
1506093575.6,286047005.3,N
1506093595.4,286047003.0,N
1506093615.2,286047003.5,N
1506093635.1,286047005.5,N
1506093636.0,286047005.5,N
1506093655.8,286047003.0,N
1506093675.6,286047007.2,N
1506093695.5,286047004.7,N
1506093715.3,286047005.8,N
1506093735.1,286047003.0,N
1506093755.9,286047001.7,N
1506093775.7,286047003.6,N
1506093795.5,286047002.0,N
1506093815.3,286047003.9,N
1506093835.2,286047002.1,N
1506093855.0,286047002.4,N
1506093855.9,286047002.4,N
1506093875.7,286047004.3,N
1506093895.6,286047004.2,N
1506093915.4,286047005.9,N
1506093935.2,286047005.8,N
1506093955.1,286047005.0,N
1506093956.0,286047005.0,N
1506093975.8,286047004.5,P
1506093995.6,286047001.4,P
1506094015.5,286047004.2,P
1506094035.3,286047000.1,N
1506094055.1,286047000.1,N
1506094075.9,286047001.8,N
1506094095.7,286046998.7,N
1506094115.5,286046996.8,N
1506094135.4,286047001.1,N
1506094155.2,286047000.6,N
1506094175.0,286047000.0,N
1506094175.9,286047000.0,N
1506094195.8,286047000.9,N
1506094215.6,286047001.8,N
1506094235.4,286047001.1,N
1506094255.3,286046998.3,N
1506094275.1,286047000.2,N
1506094276.0,286047000.2,N
1506094295.8,286047002.4,N
1506094315.7,286046999.9,N
1506094335.5,286047001.2,N
1506094355.3,286046998.3,N
1506094375.1,286046999.2,N
1506094395.9,286047000.2,N
1506094415.7,286047000.6,N
1506094435.5,286047001.1,N
1506094455.4,286046998.5,N
1506094475.2,286047000.9,N
1506094495.0,286046999.8,N
1506094495.9,286046999.8,N
1506094515.8,286047004.2,N
1506094535.6,286047005.8,P
1506094555.4,286047002.7,N
1506094575.3,286047001.5,N
1506094595.1,286046999.8,N
1506094615.8,286047002.7,N
1506094635.7,286047000.2,N
1506094655.5,286047001.7,N
1506094675.3,286047002.1,N
1506094695.2,286047000.0,N
1506094715.9,286047002.2,N
1506094735.7,286047002.3,N
1506094755.5,286047000.5,N
1506094775.4,286047000.4,N
1506094795.2,286047000.2,N
1506094815.0,286047000.7,N
1506094815.9,286047000.7,N
1506094835.8,286047002.3,N
1506094855.6,286047002.4,N
1506094875.4,286047002.0,N
1506094895.3,286047000.6,N
1506094915.1,286047001.1,N
1506094916.0,286047001.1,N
1506094935.8,286047002.6,N
1506094955.7,286046998.1,N
1506094975.5,286046999.3,N
1506094995.3,286046998.9,N
1506095015.2,286046996.5,N
1506095035.9,286046998.0,N
1506095055.7,286046999.5,N
1506095075.5,286046999.2,N
1506095095.4,286046999.3,N
1506095115.2,286047000.7,N
1506095135.0,286047002.7,N
1506095135.9,286047002.7,N
1506095155.8,286046999.8,N
1506095175.6,286047001.9,N
1506095195.4,286046998.3,N
1506095215.3,286047001.2,N
1506095235.1,286047002.6,N
1506095236.0,286047002.6,N
1506095255.8,286047000.8,N
1506095275.7,286047000.7,N
1506095295.5,286047000.4,N
1506095315.3,286047000.3,N
1506095335.2,286047001.6,N
1506095355.9,286047000.3,N
1506095375.7,286047000.1,N
1506095395.5,286046998.8,N
1506095415.4,286047001.1,N
1506095435.2,286047001.0,N
1506095455.0,286047000.8,N
1506095455.9,286047000.8,N
1506095475.8,286046999.7,N
1506095495.6,286047002.4,N
1506095515.4,286046999.7,N
1506095535.3,286047001.1,N
1506095555.1,286046998.6,N
1506095575.8,286046998.8,N
1506095595.7,286047000.7,N
1506095615.5,286047001.5,N
1506095635.3,286046999.7,N
1506095655.2,286046998.6,N
1506095675.9,286046999.1,N
1506095695.7,286046998.6,N
1506095715.6,286047002.5,N
1506095735.4,286046996.7,N
1506095755.2,286047001.0,N
1506095775.1,286047001.9,N
1506095776.0,286047001.9,N
1506095795.8,286047002.1,N
1506095815.6,286047002.8,N
1506095835.4,286047000.9,N
1506095855.3,286047001.4,N
1506095875.1,286047003.4,N
1506095895.8,286047002.9,N
1506095915.7,286047003.0,N
1506095935.5,286047002.5,N
1506095955.3,286047004.3,N
1506095975.2,286047001.6,N
1506095995.9,286047002.8,N
